Time,TemperatureF,DewpointF,PressureIn,WindDirection,WindDirectionDegrees,WindSpeedMPH,WindSpeedGustMPH,Humidity,HourlyPrecipIn,Conditions,Clouds,dailyrainin,SoftwareType,DateUTC
2013-10-02 00:01:00,56.8,35.7,28.94,WSW,250,3.6,3.6,45,0.00,,---,0.00,VWS V14.01,2013-10-02 05:01:00,
2013-10-02 00:06:00,56.7,35.6,28.94,WSW,251,4.9,4.9,45,0.00,,---,0.00,VWS V14.01,2013-10-02 05:06:00,
2013-10-02 00:11:00,56.5,35.4,28.94,WSW,257,5.8,5.8,45,0.00,,---,0.00,VWS V14.01,2013-10-02 05:11:00,
2013-10-02 00:16:00,56.7,35.6,28.94,WSW,254,4.9,4.9,45,0.00,,---,0.00,VWS V14.01,2013-10-02 05:16:00,
2013-10-02 00:21:00,56.7,35.6,28.94,WSW,250,6.3,6.3,45,0.00,,---,0.00,VWS V14.01,2013-10-02 05:21:00,
2013-10-02 00:26:00,56.7,35.6,28.94,West,277,4.0,4.9,45,0.00,,---,0.00,VWS V14.01,2013-10-02 05:26:00,
2013-10-02 00:31:00,56.8,35.7,28.94,WSW,243,4.0,4.0,45,0.00,,---,0.00,VWS V14.01,2013-10-02 05:31:00,
2013-10-02 00:36:00,56.8,35.7,28.94,SW,235,2.7,3.6,45,0.00,,---,0.00,VWS V14.01,2013-10-02 05:36:00,
2013-10-02 00:41:00,56.7,35.6,28.94,WSW,252,2.7,4.0,45,0.00,,---,0.00,VWS V14.01,2013-10-02 05:41:00,
2013-10-02 00:46:00,56.7,35.6,28.94,SW,234,3.6,4.0,45,0.00,,---,0.00,VWS V14.01,2013-10-02 05:46:00,
2013-10-02 00:51:00,56.7,35.6,28.94,WSW,237,3.1,3.6,45,0.00,,---,0.00,VWS V14.01,2013-10-02 05:51:00,
2013-10-02 00:56:00,56.5,35.4,28.94,West,276,6.3,6.3,45,0.00,,---,0.00,VWS V14.01,2013-10-02 05:56:00,
2013-10-02 01:01:00,56.5,35.4,28.94,West,280,4.0,4.9,45,0.00,,---,0.00,VWS V14.01,2013-10-02 06:01:00,
2013-10-02 01:06:00,56.7,35.6,28.94,SW,233,4.0,4.0,45,0.00,,---,0.00,VWS V14.01,2013-10-02 06:06:00,
2013-10-02 01:11:00,56.5,35.4,28.94,West,270,3.6,3.6,45,0.00,,---,0.00,VWS V14.01,2013-10-02 06:11:00,
2013-10-02 01:16:00,56.3,35.2,28.94,WSW,240,2.7,4.0,45,0.00,,---,0.00,VWS V14.01,2013-10-02 06:16:00,
2013-10-02 01:21:00,56.3,35.2,28.94,WSW,239,2.7,3.6,45,0.00,,---,0.00,VWS V14.01,2013-10-02 06:21:00,
2013-10-02 01:26:00,55.9,34.9,28.94,West,274,2.2,4.0,45,0.00,,---,0.00,VWS V14.01,2013-10-02 06:26:00,
2013-10-02 01:31:00,55.6,34.6,28.94,WSW,237,3.1,3.6,45,0.00,,---,0.00,VWS V14.01,2013-10-02 06:31:00,
2013-10-02 01:36:00,55.4,34.4,28.94,WSW,257,3.1,3.1,45,0.00,,---,0.00,VWS V14.01,2013-10-02 06:36:00,
2013-10-02 01:41:00,55.0,34.1,28.94,WSW,250,2.7,2.7,45,0.00,,---,0.00,VWS V14.01,2013-10-02 06:41:00,
2013-10-02 01:46:00,54.5,33.6,28.94,SW,230,3.1,4.0,45,0.00,,---,0.00,VWS V14.01,2013-10-02 06:46:00,
2013-10-02 01:51:00,54.3,33.5,28.97,WSW,242,2.7,2.7,45,0.00,,---,0.00,VWS V14.01,2013-10-02 06:51:00,
2013-10-02 01:56:00,54.0,33.1,28.97,WSW,254,3.1,3.6,45,0.00,,---,0.00,VWS V14.01,2013-10-02 06:56:00,
2013-10-02 02:01:00,53.6,37.4,28.97,SW,232,4.0,4.0,54,0.00,,---,0.00,VWS V14.01,2013-10-02 07:01:00,
2013-10-02 02:06:00,53.6,32.8,28.97,SW,230,3.6,3.6,45,0.00,,---,0.00,VWS V14.01,2013-10-02 07:06:00,
2013-10-02 02:11:00,53.6,37.4,28.97,West,259,5.4,5.4,54,0.00,,---,0.00,VWS V14.01,2013-10-02 07:11:00,
2013-10-02 02:16:00,53.4,34.2,28.97,West,259,4.9,5.4,48,0.00,,---,0.00,VWS V14.01,2013-10-02 07:16:00,
2013-10-02 02:21:00,53.4,34.2,28.97,SW,224,4.0,4.0,48,0.00,,---,0.00,VWS V14.01,2013-10-02 07:21:00,
2013-10-02 02:26:00,53.4,34.2,28.97,WSW,238,5.4,5.4,48,0.00,,---,0.00,VWS V14.01,2013-10-02 07:26:00,
2013-10-02 02:31:00,53.4,34.2,28.97,WSW,237,3.6,3.6,48,0.00,,---,0.00,VWS V14.01,2013-10-02 07:31:00,
2013-10-02 02:36:00,53.2,37.0,28.97,SW,221,2.7,3.1,54,0.00,,---,0.00,VWS V14.01,2013-10-02 07:36:00,
2013-10-02 02:41:00,53.1,36.9,28.97,West,268,4.0,4.0,54,0.00,,---,0.00,VWS V14.01,2013-10-02 07:41:00,
2013-10-02 02:46:00,52.9,36.7,28.97,WSW,254,2.7,3.1,54,0.00,,---,0.00,VWS V14.01,2013-10-02 07:46:00,
2013-10-02 02:51:00,52.5,36.4,28.97,WSW,255,3.6,3.6,54,0.00,,---,0.00,VWS V14.01,2013-10-02 07:51:00,
2013-10-02 02:56:00,52.3,40.1,28.97,SW,236,4.0,4.0,63,0.00,,---,0.00,VWS V14.01,2013-10-02 07:56:00,
2013-10-02 03:00:00,52.2,36.0,28.97,SW,235,3.6,5.4,54,0.00,,---,0.00,VWS V14.01,2013-10-02 08:00:00,
2013-10-02 03:05:00,52.2,36.0,28.97,SW,234,4.0,4.9,54,0.00,,---,0.00,VWS V14.01,2013-10-02 08:05:00,
2013-10-02 03:10:00,52.3,36.2,28.97,SW,228,3.6,3.6,54,0.00,,---,0.00,VWS V14.01,2013-10-02 08:10:00,
2013-10-02 03:15:00,52.7,36.5,28.97,SW,225,3.6,5.4,54,0.00,,---,0.00,VWS V14.01,2013-10-02 08:15:00,
2013-10-02 03:20:00,52.9,36.7,28.97,WSW,237,2.7,3.6,54,0.00,,---,0.00,VWS V14.01,2013-10-02 08:20:00,
2013-10-02 03:25:00,53.1,33.9,28.97,SW,219,4.0,4.0,48,0.00,,---,0.00,VWS V14.01,2013-10-02 08:25:00,
2013-10-02 03:30:00,53.1,36.9,28.97,SW,218,2.7,3.6,54,0.00,,---,0.00,VWS V14.01,2013-10-02 08:30:00,
2013-10-02 03:35:00,52.9,36.7,28.97,WSW,237,2.2,3.6,54,0.00,,---,0.00,VWS V14.01,2013-10-02 08:35:00,
2013-10-02 03:40:00,52.2,40.0,28.97,West,259,3.6,3.6,63,0.00,,---,0.00,VWS V14.01,2013-10-02 08:40:00,
2013-10-02 03:45:00,51.6,36.9,28.97,SW,223,3.1,3.6,57,0.00,,---,0.00,VWS V14.01,2013-10-02 08:45:00,
2013-10-02 03:50:00,51.6,36.9,28.97,SW,228,4.0,4.9,57,0.00,,---,0.00,VWS V14.01,2013-10-02 08:50:00,
2013-10-02 03:55:00,51.8,35.7,28.97,WSW,244,2.7,2.7,54,0.00,,---,0.00,VWS V14.01,2013-10-02 08:55:00,
2013-10-02 04:00:00,52.2,36.0,28.97,SW,229,3.6,3.6,54,0.00,,---,0.00,VWS V14.01,2013-10-02 09:00:00,
2013-10-02 04:05:00,52.2,36.0,28.97,WSW,239,3.1,4.0,54,0.00,,---,0.00,VWS V14.01,2013-10-02 09:05:00,
2013-10-02 04:10:00,52.2,36.0,28.97,SW,233,3.6,3.6,54,0.00,,---,0.00,VWS V14.01,2013-10-02 09:10:00,
2013-10-02 04:15:00,52.0,35.9,28.97,SW,221,2.7,3.1,54,0.00,,---,0.00,VWS V14.01,2013-10-02 09:15:00,
2013-10-02 04:20:00,51.6,36.9,28.97,SW,218,3.1,3.6,57,0.00,,---,0.00,VWS V14.01,2013-10-02 09:20:00,
2013-10-02 04:25:00,51.6,36.9,28.97,SW,224,3.1,3.1,57,0.00,,---,0.00,VWS V14.01,2013-10-02 09:25:00,
2013-10-02 04:30:00,51.3,39.1,28.97,SW,225,2.2,2.2,63,0.00,,---,0.00,VWS V14.01,2013-10-02 09:30:00,
2013-10-02 04:35:00,50.4,44.8,29.00,SW,235,2.7,2.7,81,0.00,,---,0.00,VWS V14.01,2013-10-02 09:35:00,
2013-10-02 04:40:00,49.8,46.1,29.00,WSW,253,0.0,0.0,87,0.00,,---,0.00,VWS V14.01,2013-10-02 09:40:00,
2013-10-02 04:45:00,49.6,44.1,29.00,SW,236,2.7,2.7,81,0.00,,---,0.00,VWS V14.01,2013-10-02 09:45:00,
2013-10-02 04:50:00,49.8,44.2,29.00,SW,234,2.7,2.7,81,0.00,,---,0.00,VWS V14.01,2013-10-02 09:50:00,
2013-10-02 04:55:00,49.6,44.1,29.00,SSW,201,2.7,2.7,81,0.00,,---,0.00,VWS V14.01,2013-10-02 09:55:00,
2013-10-02 05:00:00,49.6,44.1,29.00,SSW,201,0.0,0.0,81,0.00,,---,0.00,VWS V14.01,2013-10-02 10:00:00,
2013-10-02 05:05:00,48.6,43.0,29.00,NNW,333,0.0,0.0,81,0.00,,---,0.00,VWS V14.01,2013-10-02 10:05:00,
2013-10-02 05:10:00,46.9,42.4,29.00,NNW,333,0.0,0.0,84,0.00,,---,0.00,VWS V14.01,2013-10-02 10:10:00,
2013-10-02 05:15:00,46.0,42.4,29.00,NNW,333,0.0,0.0,87,0.00,,---,0.00,VWS V14.01,2013-10-02 10:15:00,
2013-10-02 05:20:00,45.9,45.9,29.00,SW,229,2.7,3.1,100,0.00,,---,0.00,VWS V14.01,2013-10-02 10:20:00,
2013-10-02 05:25:00,46.4,46.4,29.00,WSW,240,0.0,0.0,100,0.00,,---,0.00,VWS V14.01,2013-10-02 10:25:00,
2013-10-02 05:30:00,46.0,46.0,29.00,WSW,240,0.0,0.0,100,0.00,,---,0.00,VWS V14.01,2013-10-02 10:30:00,
2013-10-02 05:35:00,45.3,45.3,29.00,WSW,240,0.0,0.0,100,0.00,,---,0.00,VWS V14.01,2013-10-02 10:35:00,
2013-10-02 05:40:00,45.5,45.5,29.00,WSW,240,0.0,0.0,100,0.00,,---,0.00,VWS V14.01,2013-10-02 10:40:00,
2013-10-02 05:45:00,45.1,45.1,29.00,WSW,240,0.0,0.0,100,0.00,,---,0.00,VWS V14.01,2013-10-02 10:45:00,
2013-10-02 05:50:00,45.0,45.0,29.03,WSW,240,0.0,0.0,100,0.00,,---,0.00,VWS V14.01,2013-10-02 10:50:00,
2013-10-02 05:55:00,44.6,44.6,29.03,WSW,240,0.0,0.0,100,0.00,,---,0.00,VWS V14.01,2013-10-02 10:55:00,
2013-10-02 06:00:00,44.2,44.2,29.03,SW,236,0.0,0.0,100,0.00,,---,0.00,VWS V14.01,2013-10-02 11:00:00,
2013-10-02 06:05:00,43.9,43.9,29.03,SW,236,0.0,0.0,100,0.00,,---,0.00,VWS V14.01,2013-10-02 11:05:00,
2013-10-02 06:10:00,43.5,43.5,29.03,SW,236,0.0,0.0,100,0.00,,---,0.00,VWS V14.01,2013-10-02 11:10:00,
2013-10-02 06:15:00,43.2,43.2,29.03,SW,236,0.0,0.0,100,0.00,,---,0.00,VWS V14.01,2013-10-02 11:15:00,
2013-10-02 06:20:00,42.8,42.8,29.03,SW,236,0.0,0.0,100,0.00,,---,0.00,VWS V14.01,2013-10-02 11:20:00,
2013-10-02 06:25:00,42.6,42.6,29.03,SW,236,0.0,0.0,100,0.00,,---,0.00,VWS V14.01,2013-10-02 11:25:00,
2013-10-02 06:30:00,42.4,42.4,29.03,SW,236,0.0,0.0,100,0.00,,---,0.00,VWS V14.01,2013-10-02 11:30:00,
2013-10-02 06:35:00,42.4,42.4,29.03,SW,236,0.0,0.0,100,0.00,,---,0.00,VWS V14.01,2013-10-02 11:35:00,
2013-10-02 06:40:00,42.3,42.3,29.03,SW,236,0.0,0.0,100,0.00,,---,0.00,VWS V14.01,2013-10-02 11:40:00,
2013-10-02 06:45:00,42.1,42.1,29.03,SW,236,0.0,0.0,100,0.00,,---,0.00,VWS V14.01,2013-10-02 11:45:00,
2013-10-02 06:50:00,42.1,42.1,29.03,SW,236,0.0,0.0,100,0.00,,---,0.00,VWS V14.01,2013-10-02 11:50:00,
2013-10-02 06:55:00,42.3,42.3,29.03,SW,236,0.0,0.0,100,0.00,,---,0.00,VWS V14.01,2013-10-02 11:55:00,
2013-10-02 07:00:00,42.4,42.4,29.03,SW,236,0.0,0.0,100,0.00,,---,0.00,VWS V14.01,2013-10-02 12:00:00,
2013-10-02 07:05:00,42.4,42.4,29.03,SW,236,0.0,0.0,100,0.00,,---,0.00,VWS V14.01,2013-10-02 12:05:00,
2013-10-02 07:10:00,42.8,42.8,29.03,SW,236,0.0,0.0,100,0.00,,---,0.00,VWS V14.01,2013-10-02 12:10:00,
2013-10-02 07:15:00,42.8,42.8,29.03,SW,236,0.0,0.0,100,0.00,,---,0.00,VWS V14.01,2013-10-02 12:15:00,
2013-10-02 07:20:00,43.0,43.0,29.03,SW,236,0.0,0.0,100,0.00,,---,0.00,VWS V14.01,2013-10-02 12:20:00,
2013-10-02 07:25:00,43.2,43.2,29.03,WSW,239,0.0,0.0,100,0.00,,---,0.00,VWS V14.01,2013-10-02 12:25:00,
2013-10-02 07:30:00,43.3,43.3,29.03,WSW,239,0.0,0.0,100,0.00,,---,0.00,VWS V14.01,2013-10-02 12:30:00,
2013-10-02 07:35:00,43.3,43.3,29.03,WSW,239,0.0,0.0,100,0.00,,---,0.00,VWS V14.01,2013-10-02 12:35:00,
2013-10-02 07:40:00,43.5,43.5,29.03,WSW,239,0.0,0.0,100,0.00,,---,0.00,VWS V14.01,2013-10-02 12:40:00,
2013-10-02 07:45:00,43.7,43.7,29.03,WSW,239,0.0,0.0,100,0.00,,---,0.00,VWS V14.01,2013-10-02 12:45:00,
2013-10-02 07:50:00,43.7,43.7,29.03,WSW,239,0.0,0.0,100,0.00,,---,0.00,VWS V14.01,2013-10-02 12:50:00,
2013-10-02 07:55:00,44.1,44.1,29.03,WSW,239,0.0,0.0,100,0.00,,---,0.00,VWS V14.01,2013-10-02 12:55:00,
2013-10-02 08:00:00,44.2,44.2,29.03,WSW,239,0.0,0.0,100,0.00,,---,0.00,VWS V14.01,2013-10-02 13:00:00,
2013-10-02 08:05:00,44.6,44.6,29.06,WSW,239,0.0,0.0,100,0.00,,---,0.00,VWS V14.01,2013-10-02 13:05:00,
2013-10-02 08:10:00,44.8,44.8,29.06,WSW,239,0.0,0.0,100,0.00,,---,0.00,VWS V14.01,2013-10-02 13:10:00,
2013-10-02 08:15:00,45.0,45.0,29.06,WSW,239,0.0,0.0,100,0.00,,---,0.00,VWS V14.01,2013-10-02 13:15:00,
2013-10-02 08:20:00,45.1,45.1,29.06,WSW,239,0.0,0.0,100,0.00,,---,0.00,VWS V14.01,2013-10-02 13:20:00,
2013-10-02 08:25:00,45.5,45.5,29.06,WSW,239,0.0,0.0,100,0.00,,---,0.00,VWS V14.01,2013-10-02 13:25:00,
2013-10-02 08:30:00,46.0,46.0,29.06,WSW,239,0.0,0.0,100,0.00,,---,0.00,VWS V14.01,2013-10-02 13:30:00,
2013-10-02 08:35:00,46.4,46.4,29.06,WSW,239,0.0,0.0,100,0.00,,---,0.00,VWS V14.01,2013-10-02 13:35:00,
2013-10-02 08:40:00,46.9,46.9,29.06,WSW,239,0.0,0.0,100,0.00,,---,0.00,VWS V14.01,2013-10-02 13:40:00,
2013-10-02 08:45:00,47.3,47.3,29.06,WSW,239,0.0,0.0,100,0.00,,---,0.00,VWS V14.01,2013-10-02 13:45:00,
2013-10-02 08:50:00,47.7,47.7,29.06,WSW,239,0.0,0.0,100,0.00,,---,0.00,VWS V14.01,2013-10-02 13:50:00,
2013-10-02 08:55:00,48.2,48.2,29.06,WSW,239,0.0,0.0,100,0.00,,---,0.00,VWS V14.01,2013-10-02 13:55:00,
2013-10-02 09:00:00,48.7,48.7,29.06,WSW,239,0.0,0.0,100,0.00,,---,0.00,VWS V14.01,2013-10-02 14:00:00,
2013-10-02 09:05:00,49.5,49.5,29.06,WSW,238,0.0,0.0,100,0.00,,---,0.00,VWS V14.01,2013-10-02 14:05:00,
2013-10-02 09:10:00,50.2,50.2,29.06,WSW,238,0.0,0.0,100,0.00,,---,0.00,VWS V14.01,2013-10-02 14:10:00,
2013-10-02 09:15:00,50.7,50.7,29.06,WSW,238,0.0,0.0,100,0.00,,---,0.00,VWS V14.01,2013-10-02 14:15:00,
2013-10-02 09:20:00,51.6,51.6,29.06,WSW,238,0.0,0.0,100,0.00,,---,0.00,VWS V14.01,2013-10-02 14:20:00,
2013-10-02 09:25:00,52.2,52.2,29.06,WSW,238,0.0,0.0,100,0.00,,---,0.00,VWS V14.01,2013-10-02 14:25:00,
2013-10-02 09:30:00,52.7,52.7,29.06,WSW,238,0.0,0.0,100,0.00,,---,0.00,VWS V14.01,2013-10-02 14:30:00,
2013-10-02 09:35:00,53.1,53.1,29.06,WSW,238,0.0,0.0,100,0.00,,---,0.00,VWS V14.01,2013-10-02 14:35:00,
2013-10-02 09:40:00,53.6,53.6,29.06,WSW,238,0.0,0.0,100,0.00,,---,0.00,VWS V14.01,2013-10-02 14:40:00,
2013-10-02 09:45:00,54.1,54.1,29.06,WSW,238,0.0,0.0,100,0.00,,---,0.00,VWS V14.01,2013-10-02 14:45:00,
2013-10-02 09:50:00,54.5,54.5,29.06,WSW,238,0.0,0.0,100,0.00,,---,0.00,VWS V14.01,2013-10-02 14:50:00,
2013-10-02 09:55:00,55.0,55.0,29.06,WSW,238,0.0,0.0,100,0.00,,---,0.00,VWS V14.01,2013-10-02 14:55:00,
2013-10-02 10:00:00,55.6,55.6,29.06,WSW,238,0.0,0.0,100,0.00,,---,0.00,VWS V14.01,2013-10-02 15:00:00,
2013-10-02 10:05:00,55.9,55.9,29.06,WSW,238,0.0,0.0,100,0.00,,---,0.00,VWS V14.01,2013-10-02 15:05:00,
2013-10-02 10:10:00,56.3,56.3,29.06,WSW,238,0.0,0.0,100,0.00,,---,0.00,VWS V14.01,2013-10-02 15:10:00,
2013-10-02 10:15:00,56.7,56.7,29.06,WSW,238,0.0,0.0,100,0.00,,---,0.00,VWS V14.01,2013-10-02 15:15:00,
2013-10-02 10:20:00,56.8,56.8,29.06,WSW,238,0.0,0.0,100,0.00,,---,0.00,VWS V14.01,2013-10-02 15:20:00,
2013-10-02 10:25:00,57.2,57.2,29.06,WSW,238,0.0,0.0,100,0.00,,---,0.00,VWS V14.01,2013-10-02 15:25:00,
2013-10-02 10:30:00,57.6,57.6,29.06,WSW,238,0.0,0.0,100,0.00,,---,0.00,VWS V14.01,2013-10-02 15:30:00,
2013-10-02 10:33:00,57.9,57.9,29.06,WSW,238,0.0,0.0,100,0.00,,---,0.00,VWS V14.01,2013-10-02 15:33:00,
2013-10-02 10:38:00,58.3,58.0,29.06,South,173,0.0,0.0,99,0.00,,---,0.00,VWS V14.01,2013-10-02 15:38:00,
2013-10-02 10:43:00,58.8,57.7,29.06,South,173,0.0,0.0,96,0.00,,---,0.00,VWS V14.01,2013-10-02 15:43:00,
2013-10-02 10:48:00,59.2,55.3,29.06,WNW,289,0.0,0.0,87,0.00,,---,0.00,VWS V14.01,2013-10-02 15:48:00,
2013-10-02 10:53:00,59.5,52.7,29.06,North,0,0.0,0.0,78,0.00,,---,0.00,VWS V14.01,2013-10-02 15:53:00,
2013-10-02 10:58:00,60.1,48.7,29.06,North,357,0.0,0.0,66,0.00,,---,0.00,VWS V14.01,2013-10-02 15:58:00,
2013-10-02 11:03:00,60.4,49.0,29.06,South,173,0.0,0.0,66,0.00,,---,0.00,VWS V14.01,2013-10-02 16:03:00,
2013-10-02 11:08:00,60.6,42.4,29.06,South,173,0.0,0.0,51,0.00,,---,0.00,VWS V14.01,2013-10-02 16:08:00,
2013-10-02 11:13:00,61.5,41.7,29.06,South,173,0.0,0.0,48,0.00,,---,0.00,VWS V14.01,2013-10-02 16:13:00,
2013-10-02 11:18:00,61.9,38.6,29.06,South,173,2.7,3.6,42,0.00,,---,0.00,VWS V14.01,2013-10-02 16:18:00,
2013-10-02 11:22:00,62.2,42.3,29.06,South,173,0.0,0.0,48,0.00,,---,0.00,VWS V14.01,2013-10-02 16:22:00,
2013-10-02 11:27:00,62.6,42.7,29.06,South,173,0.0,0.0,48,0.00,,---,0.00,VWS V14.01,2013-10-02 16:27:00,
2013-10-02 11:32:00,62.6,42.7,29.06,South,173,0.0,0.0,48,0.00,,---,0.00,VWS V14.01,2013-10-02 16:32:00,
2013-10-02 11:37:00,63.0,43.0,29.06,West,267,0.0,0.0,48,0.00,,---,0.00,VWS V14.01,2013-10-02 16:37:00,
2013-10-02 11:42:00,63.1,37.8,29.06,South,173,2.7,4.9,39,0.00,,---,0.00,VWS V14.01,2013-10-02 16:42:00,
2013-10-02 11:47:00,63.5,38.1,29.06,SSW,196,0.0,0.0,39,0.00,,---,0.00,VWS V14.01,2013-10-02 16:47:00,
2013-10-02 11:52:00,64.0,38.6,29.06,WNW,282,0.0,3.1,39,0.00,,---,0.00,VWS V14.01,2013-10-02 16:52:00,
2013-10-02 11:57:00,64.8,39.2,29.06,SW,224,2.7,4.0,39,0.00,,---,1.85,VWS V14.01,2013-10-02 16:57:00,
2013-10-02 12:02:00,65.3,39.7,29.06,WSW,252,0.0,0.0,39,0.00,,---,0.00,VWS V14.01,2013-10-02 17:02:00,
2013-10-02 12:07:00,65.3,39.7,29.06,SW,220,3.1,4.0,39,0.00,,---,0.00,VWS V14.01,2013-10-02 17:07:00,
2013-10-02 12:12:00,65.8,40.2,29.06,South,180,0.0,0.0,39,0.00,,---,0.00,VWS V14.01,2013-10-02 17:12:00,
2013-10-02 12:17:00,65.8,40.2,29.06,South,173,2.7,3.1,39,0.00,,---,0.00,VWS V14.01,2013-10-02 17:17:00,
2013-10-02 12:22:00,65.8,40.2,29.06,South,186,3.1,5.8,39,0.00,,---,0.00,VWS V14.01,2013-10-02 17:22:00,
2013-10-02 12:27:00,66.0,40.4,29.06,NW,317,0.0,0.0,39,0.00,,---,0.00,VWS V14.01,2013-10-02 17:27:00,
2013-10-02 12:32:00,66.2,38.5,29.06,South,173,0.0,0.0,36,0.00,,---,0.00,VWS V14.01,2013-10-02 17:32:00,
2013-10-02 12:37:00,66.4,38.6,29.06,West,259,2.2,3.1,36,0.00,,---,0.00,VWS V14.01,2013-10-02 17:37:00,
2013-10-02 12:42:00,66.6,38.8,29.06,WNW,283,3.1,5.4,36,0.00,,---,0.00,VWS V14.01,2013-10-02 17:42:00,
2013-10-02 12:47:00,66.9,39.1,29.03,NW,324,4.0,4.9,36,0.00,,---,0.00,VWS V14.01,2013-10-02 17:47:00,
2013-10-02 12:52:00,67.1,39.3,29.03,NNE,18,0.0,0.0,36,0.00,,---,0.00,VWS V14.01,2013-10-02 17:52:00,
2013-10-02 12:57:00,67.3,39.4,29.03,NNE,18,3.1,3.6,36,0.00,,---,0.00,VWS V14.01,2013-10-02 17:57:00,
2013-10-02 13:02:00,67.6,39.8,29.03,NW,321,4.9,4.9,36,0.00,,---,0.00,VWS V14.01,2013-10-02 18:02:00,
2013-10-02 13:07:00,68.0,40.1,29.03,NNE,18,0.0,2.2,36,0.00,,---,0.00,VWS V14.01,2013-10-02 18:07:00,
2013-10-02 13:12:00,68.5,40.5,29.03,West,259,3.6,3.6,36,0.00,,---,0.00,VWS V14.01,2013-10-02 18:12:00,
2013-10-02 13:17:00,68.5,40.5,29.03,South,173,3.6,5.8,36,0.00,,---,0.00,VWS V14.01,2013-10-02 18:17:00,
2013-10-02 13:22:00,68.9,40.9,29.03,West,260,0.0,2.2,36,0.00,,---,0.00,VWS V14.01,2013-10-02 18:22:00,
2013-10-02 13:27:00,68.9,40.9,29.03,NW,310,0.0,0.0,36,0.00,,---,0.00,VWS V14.01,2013-10-02 18:27:00,
2013-10-02 13:32:00,69.1,41.0,29.03,WSW,245,4.0,4.0,36,0.00,,---,0.00,VWS V14.01,2013-10-02 18:32:00,
2013-10-02 13:37:00,69.3,41.2,29.03,South,186,0.0,0.0,36,0.00,,---,0.00,VWS V14.01,2013-10-02 18:37:00,
2013-10-02 13:42:00,69.6,41.5,29.03,North,0,0.0,2.2,36,0.00,,---,0.00,VWS V14.01,2013-10-02 18:42:00,
2013-10-02 13:47:00,69.8,41.7,29.03,WNW,286,4.5,4.5,36,0.00,,---,0.00,VWS V14.01,2013-10-02 18:47:00,
2013-10-02 13:52:00,69.6,41.5,29.03,NNE,18,4.9,4.9,36,0.00,,---,0.00,VWS V14.01,2013-10-02 18:52:00,
2013-10-02 13:57:00,69.8,41.7,29.03,SW,219,3.1,4.0,36,0.00,,---,0.00,VWS V14.01,2013-10-02 18:57:00,
2013-10-02 14:02:00,69.8,41.7,29.03,West,260,4.0,4.9,36,0.00,,---,0.00,VWS V14.01,2013-10-02 19:02:00,
2013-10-02 14:07:00,70.0,41.8,29.03,SW,217,0.0,0.0,36,0.00,,---,0.00,VWS V14.01,2013-10-02 19:07:00,
2013-10-02 14:12:00,70.2,42.0,29.03,NNE,18,0.0,3.6,36,0.00,,---,0.00,VWS V14.01,2013-10-02 19:12:00,
2013-10-02 14:17:00,70.3,42.2,29.00,WSW,240,0.0,0.0,36,0.00,,---,0.00,VWS V14.01,2013-10-02 19:17:00,
2013-10-02 14:22:00,70.3,42.2,29.00,South,173,0.0,0.0,36,0.00,,---,0.00,VWS V14.01,2013-10-02 19:22:00,
2013-10-02 14:27:00,70.5,42.3,29.00,NNW,343,0.0,2.7,36,0.00,,---,0.00,VWS V14.01,2013-10-02 19:27:00,
2013-10-02 14:32:00,70.5,42.3,29.00,WSW,257,5.8,5.8,36,0.00,,---,0.00,VWS V14.01,2013-10-02 19:32:00,
2013-10-02 14:37:00,70.5,42.3,29.00,South,173,0.0,0.0,36,0.00,,---,0.00,VWS V14.01,2013-10-02 19:37:00,
2013-10-02 14:42:00,70.5,42.3,29.00,NNE,18,2.2,2.7,36,0.00,,---,0.00,VWS V14.01,2013-10-02 19:42:00,
2013-10-02 14:47:00,70.5,42.3,29.00,North,11,0.0,0.0,36,0.00,,---,0.00,VWS V14.01,2013-10-02 19:47:00,
2013-10-02 14:52:00,70.2,42.0,29.00,WSW,242,0.0,0.0,36,0.00,,---,0.00,VWS V14.01,2013-10-02 19:52:00,
2013-10-02 14:57:00,70.0,41.8,29.00,NNE,18,4.0,4.0,36,0.00,,---,0.00,VWS V14.01,2013-10-02 19:57:00,
2013-10-02 15:02:00,70.2,42.0,29.00,NNE,18,2.7,2.7,36,0.00,,---,0.00,VWS V14.01,2013-10-02 20:02:00,
2013-10-02 15:07:00,70.2,42.0,29.00,WNW,288,2.7,5.4,36,0.00,,---,0.00,VWS V14.01,2013-10-02 20:07:00,
2013-10-02 15:12:00,70.2,42.0,29.00,South,173,2.7,3.6,36,0.00,,---,0.00,VWS V14.01,2013-10-02 20:12:00,
2013-10-02 15:17:00,70.3,42.2,29.00,South,173,2.2,3.1,36,0.00,,---,0.00,VWS V14.01,2013-10-02 20:17:00,
2013-10-02 15:22:00,70.3,42.2,29.00,North,357,2.7,3.1,36,0.00,,---,0.00,VWS V14.01,2013-10-02 20:22:00,
2013-10-02 15:27:00,70.0,41.8,29.00,NW,311,0.0,0.0,36,0.00,,---,0.00,VWS V14.01,2013-10-02 20:27:00,
2013-10-02 15:32:00,69.8,41.7,29.00,NNE,17,0.0,0.0,36,0.00,,---,0.00,VWS V14.01,2013-10-02 20:32:00,
2013-10-02 15:37:00,69.8,41.7,29.00,NW,317,2.2,2.2,36,0.00,,---,0.00,VWS V14.01,2013-10-02 20:37:00,
2013-10-02 15:42:00,69.8,41.7,29.00,WSW,251,0.0,0.0,36,0.00,,---,0.00,VWS V14.01,2013-10-02 20:42:00,
2013-10-02 15:47:00,69.8,41.7,29.00,South,173,3.1,3.1,36,0.00,,---,0.00,VWS V14.01,2013-10-02 20:47:00,
2013-10-02 15:52:00,69.4,41.3,28.97,SW,229,0.0,0.0,36,0.00,,---,0.00,VWS V14.01,2013-10-02 20:52:00,
2013-10-02 15:57:00,69.1,41.0,28.97,South,187,0.0,0.0,36,0.00,,---,0.00,VWS V14.01,2013-10-02 20:57:00,
2013-10-02 16:02:00,68.9,40.9,28.97,South,173,0.0,0.0,36,0.00,,---,0.00,VWS V14.01,2013-10-02 21:02:00,
2013-10-02 16:07:00,68.9,40.9,28.97,South,173,0.0,3.1,36,0.00,,---,0.00,VWS V14.01,2013-10-02 21:07:00,
2013-10-02 16:12:00,68.7,40.7,28.97,South,173,2.2,2.7,36,0.00,,---,0.00,VWS V14.01,2013-10-02 21:12:00,
2013-10-02 16:17:00,68.4,40.4,28.97,South,173,0.0,0.0,36,0.00,,---,0.00,VWS V14.01,2013-10-02 21:17:00,
2013-10-02 16:22:00,68.4,40.4,28.97,South,173,0.0,0.0,36,0.00,,---,0.00,VWS V14.01,2013-10-02 21:22:00,
2013-10-02 16:27:00,68.2,40.2,28.97,South,173,0.0,0.0,36,0.00,,---,0.00,VWS V14.01,2013-10-02 21:27:00,
2013-10-02 16:32:00,68.0,40.1,28.97,South,173,0.0,0.0,36,0.00,,---,0.00,VWS V14.01,2013-10-02 21:32:00,
2013-10-02 16:37:00,67.8,39.9,28.97,SSW,202,0.0,2.7,36,0.00,,---,0.00,VWS V14.01,2013-10-02 21:37:00,
2013-10-02 16:42:00,67.6,39.8,28.97,South,176,0.0,0.0,36,0.00,,---,0.00,VWS V14.01,2013-10-02 21:42:00,
2013-10-02 16:47:00,67.3,45.2,28.97,South,173,0.0,2.7,45,0.00,,---,0.00,VWS V14.01,2013-10-02 21:47:00,
2013-10-02 16:52:00,66.7,39.0,28.97,South,173,0.0,0.0,36,0.00,,---,0.00,VWS V14.01,2013-10-02 21:52:00,
2013-10-02 16:57:00,66.6,44.6,28.97,South,173,0.0,0.0,45,0.00,,---,0.00,VWS V14.01,2013-10-02 21:57:00,
2013-10-02 17:02:00,66.4,44.4,28.97,South,184,0.0,0.0,45,0.00,,---,0.00,VWS V14.01,2013-10-02 22:02:00,
2013-10-02 17:07:00,66.2,44.2,28.97,South,184,0.0,0.0,45,0.00,,---,0.00,VWS V14.01,2013-10-02 22:07:00,
2013-10-02 17:11:00,66.0,44.1,28.97,South,184,0.0,0.0,45,0.00,,---,0.00,VWS V14.01,2013-10-02 22:11:00,
2013-10-02 17:16:00,66.0,44.1,28.97,South,184,0.0,0.0,45,0.00,,---,0.00,VWS V14.01,2013-10-02 22:16:00,
2013-10-02 17:21:00,65.5,43.6,28.97,South,184,0.0,0.0,45,0.00,,---,0.00,VWS V14.01,2013-10-02 22:21:00,
2013-10-02 17:26:00,65.3,43.4,28.97,South,184,0.0,0.0,45,0.00,,---,0.00,VWS V14.01,2013-10-02 22:26:00,
2013-10-02 17:32:00,65.1,43.3,28.97,South,184,0.0,0.0,45,0.00,,---,0.00,VWS V14.01,2013-10-02 22:32:00,
2013-10-02 17:37:00,64.9,43.1,28.97,South,173,0.0,0.0,45,0.00,,---,0.00,VWS V14.01,2013-10-02 22:37:00,
2013-10-02 17:42:00,64.6,42.8,28.97,South,173,0.0,0.0,45,0.00,,---,0.00,VWS V14.01,2013-10-02 22:42:00,
2013-10-02 17:47:00,64.4,42.6,28.97,South,173,0.0,0.0,45,0.00,,---,0.00,VWS V14.01,2013-10-02 22:47:00,
2013-10-02 17:52:00,64.2,44.1,28.97,South,173,0.0,0.0,48,0.00,,---,0.00,VWS V14.01,2013-10-02 22:52:00,
2013-10-02 17:57:00,64.0,44.0,28.97,South,173,0.0,0.0,48,0.00,,---,0.00,VWS V14.01,2013-10-02 22:57:00,
2013-10-02 18:01:00,63.9,43.8,28.97,South,173,0.0,0.0,48,0.00,,---,0.00,VWS V14.01,2013-10-02 23:01:00,
2013-10-02 18:06:00,63.5,43.5,28.97,South,173,0.0,0.0,48,0.00,,---,0.00,VWS V14.01,2013-10-02 23:06:00,
2013-10-02 18:11:00,63.3,43.3,28.97,South,173,0.0,0.0,48,0.00,,---,0.00,VWS V14.01,2013-10-02 23:11:00,
2013-10-02 18:16:00,63.0,43.0,28.97,South,173,0.0,0.0,48,0.00,,---,0.00,VWS V14.01,2013-10-02 23:16:00,
2013-10-02 18:21:00,62.6,42.7,28.97,South,173,0.0,0.0,48,0.00,,---,0.00,VWS V14.01,2013-10-02 23:21:00,
2013-10-02 18:26:00,62.2,46.8,28.97,South,173,0.0,0.0,57,0.00,,---,0.00,VWS V14.01,2013-10-02 23:26:00,
2013-10-02 18:31:00,61.9,52.8,28.97,South,173,0.0,0.0,72,0.00,,---,0.00,VWS V14.01,2013-10-02 23:31:00,
2013-10-02 18:36:00,61.3,52.2,28.97,South,173,0.0,0.0,72,0.00,,---,0.00,VWS V14.01,2013-10-02 23:36:00,
2013-10-02 18:41:00,61.0,53.0,28.97,South,173,0.0,0.0,75,0.00,,---,0.00,VWS V14.01,2013-10-02 23:41:00,
2013-10-02 18:46:00,60.6,52.7,28.97,South,173,0.0,0.0,75,0.00,,---,0.00,VWS V14.01,2013-10-02 23:46:00,
2013-10-02 18:49:00,60.4,53.6,28.97,South,173,0.0,0.0,78,0.00,,---,0.00,VWS V14.01,2013-10-02 23:49:00,
2013-10-02 18:54:00,60.1,56.2,28.97,South,173,0.0,0.0,87,0.00,,---,0.00,VWS V14.01,2013-10-02 23:54:00,
2013-10-02 18:59:00,59.4,57.3,28.97,South,173,0.0,0.0,93,0.00,,---,0.00,VWS V14.01,2013-10-02 23:59:00,
2013-10-02 19:04:00,58.8,57.7,28.97,South,173,0.0,0.0,96,0.00,,---,0.00,VWS V14.01,2013-10-03 00:04:00,
2013-10-02 19:09:00,58.5,56.5,28.97,South,173,0.0,0.0,93,0.00,,---,0.00,VWS V14.01,2013-10-03 00:09:00,
2013-10-02 19:14:00,58.1,56.1,28.97,South,173,0.0,0.0,93,0.00,,---,0.00,VWS V14.01,2013-10-03 00:14:00,
2013-10-02 19:19:00,57.9,55.9,28.97,South,173,0.0,0.0,93,0.00,,---,0.00,VWS V14.01,2013-10-03 00:19:00,
2013-10-02 19:23:00,57.6,57.6,28.97,South,173,0.0,0.0,100,0.00,,---,0.00,VWS V14.01,2013-10-03 00:23:00,
2013-10-02 19:28:00,57.2,57.2,28.97,South,173,0.0,0.0,100,0.00,,---,0.00,VWS V14.01,2013-10-03 00:28:00,
2013-10-02 19:33:00,57.0,57.0,28.97,South,173,0.0,0.0,100,0.00,,---,0.00,VWS V14.01,2013-10-03 00:33:00,
2013-10-02 19:38:00,56.8,56.8,28.97,South,173,0.0,0.0,100,0.00,,---,0.00,VWS V14.01,2013-10-03 00:38:00,
2013-10-02 19:43:00,56.8,56.8,28.97,South,173,0.0,0.0,100,0.00,,---,0.00,VWS V14.01,2013-10-03 00:43:00,
2013-10-02 19:48:00,56.5,56.5,28.97,South,173,0.0,0.0,100,0.00,,---,0.00,VWS V14.01,2013-10-03 00:48:00,
2013-10-02 19:53:00,56.1,56.1,28.97,South,173,0.0,0.0,100,0.00,,---,0.00,VWS V14.01,2013-10-03 00:53:00,
2013-10-02 19:58:00,55.9,55.9,28.97,South,173,0.0,0.0,100,0.00,,---,0.00,VWS V14.01,2013-10-03 00:58:00,
2013-10-02 20:03:00,55.8,55.8,28.97,South,173,0.0,0.0,100,0.00,,---,0.00,VWS V14.01,2013-10-03 01:03:00,
2013-10-02 20:08:00,55.6,55.6,28.97,South,173,0.0,0.0,100,0.00,,---,0.00,VWS V14.01,2013-10-03 01:08:00,
2013-10-02 20:13:00,55.6,55.6,28.97,South,173,0.0,0.0,100,0.00,,---,0.00,VWS V14.01,2013-10-03 01:13:00,
2013-10-02 20:18:00,55.6,55.6,28.97,South,173,0.0,0.0,100,0.00,,---,0.00,VWS V14.01,2013-10-03 01:18:00,
2013-10-02 20:23:00,55.2,55.2,28.97,South,173,0.0,0.0,100,0.00,,---,0.00,VWS V14.01,2013-10-03 01:23:00,
2013-10-02 20:28:00,54.9,54.9,28.97,South,173,0.0,0.0,100,0.00,,---,0.00,VWS V14.01,2013-10-03 01:28:00,
2013-10-02 20:33:00,54.7,54.7,28.97,South,173,0.0,0.0,100,0.00,,---,0.00,VWS V14.01,2013-10-03 01:33:00,
2013-10-02 20:38:00,54.7,54.7,28.97,South,173,0.0,0.0,100,0.00,,---,0.00,VWS V14.01,2013-10-03 01:38:00,
2013-10-02 20:43:00,54.5,54.5,28.97,SSW,207,0.0,0.0,100,0.00,,---,0.00,VWS V14.01,2013-10-03 01:43:00,
2013-10-02 20:48:00,54.3,54.3,28.97,SSW,207,0.0,0.0,100,0.00,,---,0.00,VWS V14.01,2013-10-03 01:48:00,
2013-10-02 20:53:00,54.1,54.1,28.97,SSW,207,0.0,0.0,100,0.00,,---,0.00,VWS V14.01,2013-10-03 01:53:00,
2013-10-02 20:58:00,54.0,54.0,28.97,SSW,207,0.0,0.0,100,0.00,,---,0.00,VWS V14.01,2013-10-03 01:58:00,
2013-10-02 21:03:00,53.6,53.6,28.97,SSW,207,0.0,0.0,100,0.00,,---,0.00,VWS V14.01,2013-10-03 02:03:00,
2013-10-02 21:05:00,53.6,53.6,28.97,SSW,207,0.0,0.0,100,0.00,,---,0.00,VWS V14.01,2013-10-03 02:05:00,
2013-10-02 21:10:00,53.1,53.1,28.97,SSW,207,0.0,0.0,100,0.00,,---,0.00,VWS V14.01,2013-10-03 02:10:00,
2013-10-02 21:15:00,52.7,52.7,28.97,SSW,207,0.0,0.0,100,0.00,,---,0.00,VWS V14.01,2013-10-03 02:15:00,
2013-10-02 21:20:00,52.3,52.3,28.94,SSW,207,0.0,0.0,100,0.00,,---,0.00,VWS V14.01,2013-10-03 02:20:00,
2013-10-02 21:25:00,52.2,52.2,28.94,SSW,207,0.0,0.0,100,0.00,,---,0.00,VWS V14.01,2013-10-03 02:25:00,
2013-10-02 21:30:00,52.2,52.2,28.94,SSW,207,0.0,0.0,100,0.00,,---,0.00,VWS V14.01,2013-10-03 02:30:00,
2013-10-02 21:35:00,52.2,52.2,28.94,SSW,207,0.0,0.0,100,0.00,,---,0.00,VWS V14.01,2013-10-03 02:35:00,
2013-10-02 21:40:00,52.5,52.5,28.94,SSW,207,0.0,0.0,100,0.00,,---,0.00,VWS V14.01,2013-10-03 02:40:00,
2013-10-02 21:45:00,52.7,52.7,28.94,SSW,207,0.0,0.0,100,0.00,,---,0.00,VWS V14.01,2013-10-03 02:45:00,
2013-10-02 21:50:00,52.9,52.9,28.94,SSW,207,0.0,0.0,100,0.00,,---,0.00,VWS V14.01,2013-10-03 02:50:00,
2013-10-02 21:55:00,53.1,53.1,28.94,SSW,207,0.0,0.0,100,0.00,,---,0.00,VWS V14.01,2013-10-03 02:55:00,
2013-10-02 22:00:00,53.2,53.2,28.94,SSW,207,0.0,0.0,100,0.00,,---,1.85,VWS V14.01,2013-10-03 03:00:00,
2013-10-02 22:05:00,53.2,53.2,28.94,SSW,207,0.0,0.0,100,0.00,,---,0.00,VWS V14.01,2013-10-03 03:05:00,
2013-10-02 22:10:00,53.2,53.2,28.94,SSW,207,0.0,0.0,100,0.00,,---,0.00,VWS V14.01,2013-10-03 03:10:00,
2013-10-02 22:15:00,53.4,53.4,28.94,SSW,207,0.0,0.0,100,0.00,,---,0.00,VWS V14.01,2013-10-03 03:15:00,
2013-10-02 22:20:00,53.6,53.6,28.94,SSW,207,0.0,0.0,100,0.00,,---,0.00,VWS V14.01,2013-10-03 03:20:00,
2013-10-02 22:25:00,53.8,53.8,28.94,SSW,207,0.0,0.0,100,0.00,,---,0.00,VWS V14.01,2013-10-03 03:25:00,
2013-10-02 22:30:00,53.6,53.6,28.94,SSW,207,0.0,0.0,100,0.00,,---,0.00,VWS V14.01,2013-10-03 03:30:00,
2013-10-02 22:34:00,53.1,53.1,28.94,South,173,0.0,0.0,100,0.00,,---,0.00,VWS V14.01,2013-10-03 03:34:00,
2013-10-02 22:39:00,52.9,52.9,28.94,South,173,0.0,0.0,100,0.00,,---,0.00,VWS V14.01,2013-10-03 03:39:00,
2013-10-02 22:44:00,52.5,52.5,28.94,South,173,0.0,0.0,100,0.00,,---,0.00,VWS V14.01,2013-10-03 03:44:00,
2013-10-02 22:49:00,52.5,52.5,28.94,South,173,0.0,0.0,100,0.00,,---,0.00,VWS V14.01,2013-10-03 03:49:00,
2013-10-02 22:54:00,52.7,52.7,28.94,South,173,0.0,0.0,100,0.00,,---,0.00,VWS V14.01,2013-10-03 03:54:00,
2013-10-02 22:59:00,52.7,52.7,28.94,South,173,0.0,0.0,100,0.00,,---,0.00,VWS V14.01,2013-10-03 03:59:00,
2013-10-02 23:01:00,52.7,52.7,28.94,South,173,0.0,0.0,100,0.00,,---,0.00,VWS V14.01,2013-10-03 04:01:00,
2013-10-02 23:06:00,52.9,52.9,28.94,South,173,0.0,0.0,100,0.00,,---,0.00,VWS V14.01,2013-10-03 04:06:00,
2013-10-02 23:11:00,52.9,52.9,28.94,South,173,0.0,0.0,100,0.00,,---,0.00,VWS V14.01,2013-10-03 04:11:00,
2013-10-02 23:16:00,52.9,52.9,28.94,South,173,0.0,0.0,100,0.00,,---,0.00,VWS V14.01,2013-10-03 04:16:00,
2013-10-02 23:21:00,53.1,53.1,28.94,South,173,0.0,0.0,100,0.00,,---,0.00,VWS V14.01,2013-10-03 04:21:00,
2013-10-02 23:26:00,53.1,53.1,28.94,South,173,0.0,0.0,100,0.00,,---,0.00,VWS V14.01,2013-10-03 04:26:00,
2013-10-02 23:31:00,53.1,53.1,28.94,South,173,0.0,0.0,100,0.00,,---,0.00,VWS V14.01,2013-10-03 04:31:00,
2013-10-02 23:36:00,52.9,52.9,28.94,South,173,0.0,0.0,100,0.00,,---,0.00,VWS V14.01,2013-10-03 04:36:00,
2013-10-02 23:41:00,52.7,52.7,28.94,South,173,0.0,0.0,100,0.00,,---,0.00,VWS V14.01,2013-10-03 04:41:00,
2013-10-02 23:46:00,52.9,52.9,28.94,South,173,0.0,0.0,100,0.00,,---,0.00,VWS V14.01,2013-10-03 04:46:00,
2013-10-02 23:51:00,53.1,53.1,28.94,South,173,0.0,0.0,100,0.00,,---,0.00,VWS V14.01,2013-10-03 04:51:00,
2013-10-02 23:56:00,53.2,53.2,28.94,South,173,0.0,0.0,100,0.00,,---,0.00,VWS V14.01,2013-10-03 04:56:00,